Location: Dehesa de la Cepeda
(40.6574°N, 4.3013°W)
Time: 19:53:23
(UTC+00:00)

Vanguard 3 - Pass Details

Date: 06 August 2021
Orbit: 510 x 3260 km, 33.3° (Epoch: 22 September)

Event Time Altitude Azimuth Distance (km) Brightness Sun altitude
Rises 22:48:03 0° 281° (W) 6,693 12.3 -28.8°
Reaches altitude 10° 22:52:50 10° 273° (W) 5,917 11.8 -29.2°
Maximum altitude 23:08:51 35° 218° (SW) 4,447 10.5 -30.4°
Enters shadow 23:13:05 32° 197° (SSW) 4,518 10.4 -30.7°
